STARLINK-2245 (48589 NORAD) Tracking and Keplerian Element Data

This shows tracking and keplerian element data for the satellite.

Feedback or suggestion? Click here.




ElementValue
Catalog48589
NameSTARLINK-2245
Epoch Orbit2347
Epoch Day287.92983933
Epoch Year2021
RAAN144.6469
Inclination53.0531
Eccentricity0.0002023
Argument of Perigee56.176
Mean Anonmoly303.9421
Mean Motion15.06382417
Decay Rate-6.9E-06
L11 48589U 21041AN 21287.92983933 -.00000690 00000-0 -27439-4 0 9994
L22 48589 53.0531 144.6469 0002023 56.1760 303.9421 15.06382417 23474

Live tracking and technical data element details for STARLINK-2245 (NORAD 48589). STARLINK-2245 can be tracked NOW for your location showing map with azimuth and elevation plus other details from your city location.

Track the satellite on the map from your city or location and see movement details for azimuth, elevation, latitude, longitude, range, height, and movement on the map or in text.







IsCatalogInMostPopularTable: catalog: 48589, numindb: 38
Update: records affected: 1



GetName: 48589 STARLINK-2245

Hit Count: updated at: Tue, 19 Oct 2021 09:11:46 GMT